Miscellaneous Local Product
Issued by NWS Hastings, NE

Home | Current Version | Previous Version | Graphics & Text | Print | Product List | Glossary On
Versions: 1 2 3 4 5 6 7 8 9 10 11 12 13 14 15 16 17 18 19 20 21 22 23 24 25 26 27 28 29 30 31 32 33 34 35 36 37 38 39 40 41 42 43 44 45 46 47 48 49 50
000
AXUS43 KGID 251302
MISGRI

GID CWA HOURLY WEATHER ROUNDUP
NATIONAL WEATHER SERVICE HASTINGS NE
800 AM CDT MON SEP 25 2017

NOTE: "FAIR" INDICATES FEW OR NO CLOUDS BELOW 12,000 FEET WITH NO
SIGNIFICANT WEATHER AND/OR OBSTRUCTIONS TO VISIBILITY.

...SOUTH CENTRAL NEBRASKA...

CITY           SKY/WX    TMP DP  RH WIND       PRES   REMARKS
GRAND ISLAND   LGT RAIN  53  53 100 N12       30.00R
HASTINGS       LGT RAIN  53  52  96 N10       29.99R
KEARNEY        LGT RAIN  51  50  96 N16       30.00F FOG
ORD            CLOUDY    50  47  89 N12       30.02R
YORK           LGT RAIN  55  55 100 CALM      29.97R
AURORA         LGT RAIN  53  53 100 N10       29.99R
LEXINGTON      CLOUDY    51  49  91 N13       30.02F
HOLDREGE       CLOUDY    51  49  96 N10G18    30.00S FOG
HEBRON         TSTM      58  58  97 CALM      29.97R

...NEBRASKA PANHANDLE...

CITY           SKY/WX    TMP DP  RH WIND       PRES   REMARKS
CHADRON        CLOUDY    41  39  93 CALM      30.14R
ALLIANCE       CLOUDY    42  40  92 N6        30.10R
SCOTTSBLUFF    CLOUDY    44  40  85 NE5       30.12S
SIDNEY         CLOUDY    43  42  97 N9        30.11S

...WESTERN AND NORTH CENTRAL NEBRASKA...

CITY           SKY/WX    TMP DP  RH WIND       PRES   REMARKS
VALENTINE      CLOUDY    47  45  93 N9        30.11R
AINSWORTH      CLOUDY    47  47 100 N12       30.09R
ONEILL         LGT RAIN  49  49 100 N10       30.06R
BROKEN BOW     CLOUDY    50  49  96 N13       30.05R
IMPERIAL       CLOUDY    48  45  89 N8        30.10R
NORTH PLATTE   CLOUDY    49  47  93 N12       30.05F
MCCOOK         CLOUDY    51  49  92 N12       30.01F

...EASTERN NEBRASKA...

CITY           SKY/WX    TMP DP  RH WIND       PRES   REMARKS
NORFOLK        CLOUDY    53  53 100 N12       29.99R
SO SIOUX CITY  LGT RAIN  57  57 100 N7        29.97S
TEKAMAH        TSTM      58  57  97 NE8       29.96F FOG
COLUMBUS       CLOUDY    55  53  93 MISG      29.98R
ALBION         CLOUDY    53  52  96 N9        30.01R FOG
OMAHA EPPLEY   CLOUDY    60  56  86 N12       29.96S
OFFUTT AFB     CLOUDY    64  61  93 N7        29.95S
MILLARD        CLOUDY    60  59  96 CALM      29.96S
LINCOLN        CLOUDY    58  56  93 NE9       29.97R
NEBRASKA CITY  MOCLDY    64  64 100 NE6       29.95S
BEATRICE       FOG       62  62  99 N7        29.95R VSB 1/2
FALLS CITY     PTCLDY    67  65  93 S6        29.91S

...NORTHERN KANSAS...

CITY           SKY/WX    TMP DP  RH WIND       PRES   REMARKS
GOODLAND       HVY RAIN  48  48 100 N8        30.06R FOG
HILL CITY      RAIN      54  54 100 N14       29.98R FOG
NORTON         LGT RAIN  52  48  87 N9        29.99
PHILLIPSBURG   CLOUDY    55  55 100 N14G20    29.95F
HAYS           CLOUDY    61  61 100 NW9       29.94R THUNDER FOG
RUSSELL        LGT RAIN  64  63  96 NE6       29.90S
CONCORDIA      TSTM      62  62 100 E6        29.93R VSB 1/2
SALINA         MOCLDY    71  67  87 NW8       29.91R
TOPEKA         CLEAR     68  67  96 CALM      29.93R



USA.gov is the U.S. government's official web portal to all federal, state and local government web resources and services.